Regional Weather Roundup
Issued by NWS

Home | Current Version | Previous Version | Text Only | Print | Product List | Glossary On
Versions: 1 2 3 4 5 6 7 8 9 10 11 12 13 14 15 16 17 18 19 20 21 22 23 24 25 26 27 28 29 30 31 32 33 34 35 36 37 38 39 40 41 42 43 44 45 46 47 48 49 50
000
ASUS45 KREV 211710
RWRNV
NEVADA REGIONAL WEATHER ROUNDUP
NATIONAL WEATHER SERVICE RENO NV
900 AM PST SUN DEC 21 2014

NOTE: "FAIR" INDICATES FEW OR NO CLOUDS BELOW 12,000 FEET WITH NO
SIGNIFICANT WEATHER AND/OR OBSTRUCTIONS TO VISIBILITY.

NVZ001-003-004-211800-
WESTERN NEVADA

CITY           SKY/WX    TMP DP  RH WIND       PRES   REMARKS
RENO           PTSUNNY   55  39  54 NW10G20   30.22R
CARSON CITY    FAIR      55  37  50 W24G35    30.21R
MINDEN         CLOUDY    55  39  54 NW10G16   30.25R
SLIDE MTN        N/A     32  32 100 NW45        N/A
PYRAMID LAKE     N/A     52 N/A N/A S5          N/A
FALLON         PTSUNNY   48  39  71 S7        30.20R
LOVELOCK       CLOUDY    43  40  89 VRB5      30.16R
HAWTHORNE      SUNNY     39  34  81 CALM      30.21R
$$

NVZ002-CAZ072-073-211800-
NORTHERN AND CENTRAL SIERRA

CITY           SKY/WX    TMP DP  RH WIND       PRES   REMARKS
S. LAKE TAHOE  PTSUNNY   48  38  68 S18       30.29R
TRUCKEE        PTSUNNY   36  36 100 CALM      30.29R
SQUAW VLY 8000   N/A     36  34  93 VRB28       N/A
BLUE CANYON    LGT RAIN  44  41  89 SE3       30.33R VSB 1/2
MAMMOTH LAKES  FAIR      36  32  87 SE8       30.28S
BRIDGEPORT     FAIR      49  31  49 CALM      30.25R
$$

NVZ030-031-036-211800-
NORTHERN NEVADA

CITY           SKY/WX    TMP DP  RH WIND       PRES   REMARKS
ELKO           CLOUDY    47  39  74 SW13      30.06R
WINNEMUCCA     CLOUDY    50  40  68 SW8       30.10R
WENDOVER       CLOUDY    48  37  66 NW6       29.97R
$$

NVZ035-037-211800-
CENTRAL NEVADA

CITY           SKY/WX    TMP DP  RH WIND       PRES   REMARKS
ELY            CLOUDY    39  37  92 CALM      30.15R
EUREKA           N/A     47  36  65 W6        30.16R
$$

NVZ013-014-211800-
SOUTH CENTRAL NEVADA

CITY           SKY/WX    TMP DP  RH WIND       PRES   REMARKS
TONOPAH        PTSUNNY   35  31  85 E7        30.20R
$$

NVZ017-020-022-211800-
SOUTHERN NEVADA

CITY           SKY/WX    TMP DP  RH WIND       PRES   REMARKS
LAS VEGAS      CLOUDY    48  37  65 SW5       30.12S
N. LAS VEGAS   CLOUDY    46  37  71 CALM      30.15S
NELLIS AFB     PTSUNNY   47  40  78 E5        30.16F
HENDERSON      CLOUDY    48  37  65 SW13      30.17R
MERCURY        CLOUDY    41  38  89 CALM      30.17S
$$


USA.gov is the U.S. government's official web portal to all federal, state and local government web resources and services.